QPF
0.00 0.00 0.00 0.00 0.00 0.00 0.00 0.00 0.00 0.00 0.00 0.00 0.00 0.00 0.00 0.00 0.00 0.00 0.00 0.00 0.00 0.00 0.00 0.00 0.00 0.00 0.00 0.00 0.00 0.00 0.00 0.00 0.00 0.00 0.00 0.00 0.00 0.00 0.00 0.00 0.00 0.03 0.02 0.00 0.00
0.00 0.00 0.00 0.00 0.00 0.00 0.00 0.00 0.00 0.00 0.00 0.00 0.00 0.00 0.00 0.00 0.00 0.00 0.00 0.00 0.00 0.00 0.00 0.00 0.00 0.00 0.00 0.00 0.00 0.00 0.00 0.00 0.00 0.00 0.00 0.00 0.00 0.00 0.00 0.00 0.00 0.02 0.05 0.03 0.00
0.00 0.00 0.00 0.00 0.00 0.00 0.00 0.00 0.00 0.00 0.00 0.00 0.00 0.00 0.00 0.00 0.00 0.00 0.00 0.00 0.00 0.00 0.00 0.00 0.00 0.00 0.00 0.00 0.00 0.00 0.00 0.00 0.00 0.00 0.00 0.00 0.00 0.00 0.00 0.00 0.00 0.02 0.03 0.06 0.02
0.00 0.00 0.00 0.00 0.00 0.00 0.00 0.00 0.00 0.00 0.00 0.00 0.00 0.00 0.00 0.00 0.00 0.00 0.00 0.00 0.00 0.00 0.00 0.00 0.00 0.00 0.00 0.00 0.00 0.00 0.00 0.00 0.00 0.00 0.00 0.00 0.00 0.00 0.00 0.00 0.00 0.03 0.04 0.04 0.06
0.00 0.00 0.00 0.00 0.00 0.00 0.00 0.00 0.00 0.00 0.00 0.00 0.00 0.00 0.00 0.00 0.00 0.00 0.00 0.00 0.00 0.00 0.00 0.00 0.00 0.00 0.00 0.00 0.00 0.00 0.00 0.00 0.00 0.00 0.00 0.00 0.00 0.00 0.00 0.00 0.01 0.08 0.04 0.02 0.06
0.00 0.00 0.00 0.00 0.00 0.00 0.00 0.00 0.00 0.00 0.00 0.00 0.00 0.00 0.00 0.00 0.00 0.00 0.00 0.00 0.00 0.00 0.00 0.00 0.00 0.00 0.00 0.00 0.00 0.00 0.00 0.00 0.00 0.00 0.00 0.00 0.00 0.00 0.00 0.00 0.05 0.10 0.06 0.04 0.07
0.00 0.00 0.00 0.00 0.00 0.00 0.00 0.00 0.00 0.00 0.00 0.00 0.00 0.00 0.00 0.00 0.00 0.00 0.00 0.00 0.00 0.00 0.00 0.00 0.00 0.00 0.00 0.00 0.00 0.00 0.00 0.00 0.00 0.00 0.00 0.00 0.00 0.00 0.01 0.00 0.04 0.13 0.17 0.23 0.18
0.00 0.00 0.00 0.00 0.00 0.00 0.00 0.00 0.00 0.00 0.00 0.00 0.00 0.00 0.00 0.00 0.00 0.00 0.00 0.00 0.00 0.00 0.00 0.00 0.00 0.00 0.00 0.00 0.00 0.00 0.00 0.00 0.00 0.00 0.00 0.00 0.00 0.00 0.01 0.00 0.06 0.18 0.13 0.14 0.28
0.00 0.00 0.00 0.00 0.00 0.00 0.00 0.00 0.00 0.00 0.00 0.00 0.00 0.00 0.00 0.00 0.00 0.00 0.00 0.00 0.00 0.00 0.00 0.00 0.00 0.00 0.00 0.00 0.00 0.00 0.00 0.00 0.00 0.00 0.00 0.00 0.00 0.00 0.01 0.01 0.05 0.07 0.12 0.07 0.26
0.00 0.00 0.00 0.00 0.00 0.00 0.00 0.00 0.00 0.00 0.00 0.00 0.00 0.00 0.00 0.00 0.00 0.00 0.00 0.00 0.00 0.00 0.00 0.00 0.00 0.00 0.00 0.00 0.00 0.00 0.00 0.00 0.00 0.00 0.00 0.00 0.00 0.00 0.00 0.04 0.05 0.08 0.08 0.06 0.07
0.00 0.00 0.00 0.00 0.00 0.00 0.00 0.00 0.00 0.00 0.00 0.00 0.00 0.00 0.00 0.00 0.00 0.00 0.00 0.00 0.00 0.00 0.00 0.00 0.00 0.00 0.00 0.00 0.00 0.00 0.00 0.00 0.00 0.00 0.00 0.00 0.00 0.00 0.00 0.02 0.07 0.07 0.05 0.02 0.00
0.00 0.00 0.00 0.00 0.00 0.00 0.00 0.00 0.00 0.00 0.00 0.00 0.00 0.00 0.00 0.00 0.00 0.00 0.00 0.00 0.00 0.00 0.00 0.00 0.00 0.00 0.00 0.00 0.00 0.00 0.00 0.00 0.00 0.00 0.00 0.00 0.00 0.00 0.00 0.01 0.02 0.02 0.02 0.01 0.00
0.00 0.00 0.00 0.00 0.00 0.00 0.00 0.00 0.00 0.00 0.00 0.00 0.00 0.00 0.00 0.00 0.00 0.00 0.00 0.00 0.00 0.00 0.00 0.00 0.00 0.00 0.00 0.00 0.00 0.00 0.00 0.00 0.00 0.00 0.00 0.00 0.00 0.00 0.00 0.00 0.03 0.01 0.04 0.05 0.03
0.00 0.00 0.00 0.00 0.00 0.00 0.00 0.00 0.00 0.00 0.00 0.00 0.00 0.00 0.00 0.00 0.00 0.00 0.00 0.00 0.00 0.00 0.00 0.00 0.00 0.00 0.00 0.00 0.00 0.00 0.00 0.00 0.00 0.00 0.00 0.00 0.00 0.00 0.00 0.00 0.01 0.01 0.02 0.08 0.08
0.00 0.00 0.00 0.00 0.00 0.00 0.00 0.00 0.00 0.00 0.00 0.00 0.00 0.00 0.00 0.00 0.00 0.00 0.00 0.00 0.00 0.00 0.00 0.00 0.00 0.00 0.00 0.00 0.00 0.00 0.00 0.00 0.00 0.00 0.00 0.00 0.00 0.00 0.00 0.00 0.00 0.01 0.00 0.00 0.04
0.00 0.00 0.00 0.00 0.00 0.00 0.00 0.00 0.00 0.00 0.00 0.00 0.00 0.00 0.00 0.00 0.00 0.00 0.00 0.00 0.00 0.00 0.00 0.00 0.00 0.00 0.00 0.00 0.00 0.00 0.00 0.00 0.00 0.00 0.00 0.00 0.00 0.00 0.00 0.00 0.00 0.00 0.00 0.00 0.05
0.00 0.00 0.00 0.00 0.00 0.00 0.00 0.00 0.00 0.00 0.00 0.00 0.00 0.00 0.00 0.00 0.00 0.00 0.00 0.00 0.00 0.00 0.00 0.00 0.00 0.00 0.00 0.00 0.00 0.00 0.00 0.00 0.00 0.00 0.00 0.00 0.00 0.00 0.00 0.00 0.00 0.00 0.00 0.00 0.02
0.00 0.00 0.00 0.00 0.00 0.00 0.00 0.00 0.00 0.00 0.00 0.00 0.00 0.00 0.00 0.00 0.00 0.00 0.00 0.00 0.00 0.00 0.00 0.00 0.00 0.00 0.00 0.00 0.00 0.00 0.00 0.00 0.00 0.00 0.00 0.00 0.00 0.00 0.00 0.00 0.00 0.00 0.00 0.00 0.00
0.00 0.00 0.00 0.00 0.00 0.00 0.00 0.00 0.00 0.00 0.00 0.00 0.00 0.00 0.00 0.00 0.00 0.00 0.00 0.00 0.00 0.00 0.00 0.00 0.00 0.00 0.00 0.00 0.00 0.00 0.00 0.00 0.00 0.00 0.00 0.00 0.00 0.00 0.00 0.00 0.00 0.00 0.00 0.00 0.00
0.00 0.00 0.00 0.00 0.00 0.00 0.00 0.00 0.00 0.00 0.00 0.00 0.00 0.00 0.00 0.00 0.00 0.00 0.00 0.00 0.00 0.00 0.00 0.00 0.00 0.00 0.00 0.00 0.00 0.00 0.00 0.00 0.00 0.00 0.00 0.00 0.00 0.00 0.00 0.00 0.00 0.00 0.00 0.00 0.00
0.00 0.00 0.00 0.00 0.00 0.00 0.00 0.00 0.00 0.00 0.00 0.00 0.00 0.00 0.00 0.00 0.00 0.00 0.00 0.00 0.00 0.00 0.00 0.00 0.00 0.00 0.00 0.00 0.00 0.00 0.00 0.00 0.00 0.00 0.00 0.00 0.00 0.00 0.00 0.00 0.00 0.00 0.00 0.00 0.00
0.00 0.00 0.00 0.00 0.00 0.00 0.00 0.00 0.00 0.00 0.00 0.00 0.00 0.00 0.00 0.00 0.00 0.00 0.00 0.00 0.00 0.00 0.00 0.00 0.00 0.00 0.00 0.00 0.00 0.00 0.00 0.00 0.00 0.00 0.00 0.00 0.00 0.00 0.00 0.00 0.00 0.00 0.00 0.00 0.00
0.00 0.00 0.00 0.00 0.00 0.00 0.00 0.00 0.00 0.00 0.00 0.00 0.00 0.00 0.00 0.00 0.00 0.00 0.00 0.00 0.00 0.00 0.00 0.00 0.00 0.00 0.00 0.00 0.00 0.00 0.00 0.00 0.00 0.00 0.00 0.00 0.00 0.00 0.00 0.00 0.00 0.00 0.00 0.00 0.00
0.00 0.00 0.00 0.00 0.00 0.00 0.00 0.00 0.00 0.00 0.00 0.00 0.00 0.00 0.00 0.00 0.00 0.00 0.00 0.00 0.00 0.00 0.00 0.00 0.00 0.00 0.00 0.00 0.00 0.00 0.00 0.00 0.00 0.00 0.00 0.00 0.00 0.00 0.00 0.00 0.00 0.00 0.00 0.00 0.00
0.00 0.00 0.00 0.00 0.00 0.00 0.00 0.00 0.00 0.00 0.00 0.00 0.00 0.00 0.00 0.00 0.00 0.00 0.00 0.00 0.00 0.00 0.00 0.00 0.00 0.00 0.00 0.00 0.00 0.00 0.00 0.00 0.00 0.00 0.00 0.00 0.00 0.00 0.00 0.00 0.00 0.00 0.00 0.00 0.00
0.00 0.00 0.00 0.00 0.00 0.00 0.00 0.00 0.00 0.00 0.00 0.00 0.00 0.00 0.00 0.00 0.00 0.00 0.00 0.00 0.00 0.00 0.00 0.00 0.00 0.00 0.00 0.00 0.00 0.00 0.00 0.00 0.00 0.00 0.00 0.00 0.00 0.00 0.00 0.00 0.00 0.00 0.00 0.00 0.00
0.00 0.00 0.00 0.00 0.00 0.00 0.00 0.00 0.00 0.00 0.00 0.00 0.00 0.00 0.00 0.00 0.00 0.00 0.00 0.00 0.00 0.00 0.00 0.00 0.00 0.00 0.00 0.00 0.00 0.00 0.00 0.00 0.00 0.00 0.00 0.00 0.00 0.00 0.00 0.00 0.00 0.00 0.00 0.00 0.00
MSLP
1021.56 1021.28 1021.02 1020.78 1020.53 1020.24 1019.95 1019.69 1019.46 1019.22 1018.99 1018.67 1018.39 1018.07 1017.69 1017.34 1016.70 1016.38 1016.20 1015.87 1015.76 1015.37 1015.38 1015.43 1015.21 1015.38 1015.49 1015.91 1016.22 1016.78 1017.67 1017.80 1017.26 1016.69 1015.78 1014.84 1014.50 1013.74 1013.04 1012.60 1011.93 1011.19 1010.89 1010.26 1010.32
1021.65 1021.37 1021.11 1020.82 1020.52 1020.26 1020.00 1019.71 1019.33 1019.07 1018.87 1018.58 1018.31 1017.99 1017.62 1017.34 1017.09 1016.44 1015.58 1015.45 1015.45 1015.30 1015.57 1015.85 1015.89 1015.87 1016.15 1016.30 1016.51 1017.01 1017.56 1017.03 1016.26 1015.74 1015.29 1014.63 1014.33 1013.74 1013.35 1012.27 1011.72 1011.07 1010.78 1010.63 1010.58
1021.60 1021.40 1021.10 1020.82 1020.55 1020.24 1019.93 1019.62 1019.27 1018.93 1018.65 1018.37 1018.11 1017.78 1017.53 1017.29 1017.11 1016.02 1015.31 1015.36 1015.29 1015.29 1015.57 1015.84 1016.03 1016.23 1016.53 1016.61 1016.72 1016.82 1016.84 1016.07 1015.50 1014.97 1014.70 1014.35 1013.92 1013.48 1013.02 1012.04 1011.24 1010.79 1010.59 1010.78 1010.58
1021.74 1021.30 1020.96 1020.74 1020.48 1020.13 1019.78 1019.45 1019.14 1018.83 1018.54 1018.28 1017.97 1017.64 1017.38 1017.41 1017.02 1015.51 1015.20 1015.24 1015.13 1015.19 1015.52 1015.88 1016.23 1016.62 1016.98 1017.10 1016.89 1016.98 1015.96 1015.58 1014.67 1014.27 1014.21 1013.94 1013.42 1013.14 1012.50 1011.53 1010.75 1010.59 1010.12 1010.54 1010.54
1021.43 1021.07 1020.78 1020.52 1020.26 1019.92 1019.58 1019.25 1018.92 1018.60 1018.41 1018.25 1017.96 1017.66 1017.36 1017.16 1016.26 1015.08 1015.12 1015.22 1015.13 1015.26 1015.55 1015.94 1016.39 1016.79 1017.18 1017.31 1017.19 1016.92 1015.82 1015.00 1014.22 1013.86 1013.55 1013.37 1013.19 1012.92 1012.02 1010.79 1010.64 1010.27 1010.18 1010.23 1010.56
1021.58 1021.41 1021.18 1020.78 1020.19 1019.65 1019.19 1018.74 1018.44 1018.27 1018.16 1018.03 1017.89 1017.60 1017.47 1016.78 1015.24 1015.19 1015.24 1015.24 1015.26 1015.34 1015.55 1015.90 1016.19 1016.49 1017.01 1017.21 1017.29 1016.27 1015.87 1014.83 1013.68 1013.04 1012.90 1012.80 1012.56 1012.57 1011.09 1010.52 1010.34 1010.29 1010.49 1010.62 1010.89
1021.68 1021.42 1021.00 1020.44 1019.95 1019.50 1019.00 1018.43 1018.01 1017.75 1017.72 1017.71 1017.74 1017.63 1017.43 1016.17 1015.26 1015.29 1015.23 1015.22 1015.25 1015.29 1015.47 1015.66 1015.93 1016.46 1016.81 1016.96 1016.67 1016.45 1016.06 1014.59 1013.62 1013.04 1012.58 1012.53 1012.61 1012.09 1011.04 1010.80 1010.72 1010.65 1011.39 1011.37 1011.34
1021.57 1021.26 1020.66 1020.08 1019.60 1019.10 1018.66 1018.08 1017.62 1017.46 1017.46 1017.41 1017.52 1017.61 1016.68 1015.23 1015.16 1015.07 1015.09 1015.07 1015.18 1015.15 1015.39 1015.47 1015.87 1016.41 1016.88 1016.87 1016.56 1016.74 1016.53 1015.68 1013.86 1013.29 1012.51 1012.48 1012.26 1011.37 1010.98 1011.01 1011.01 1010.90 1011.55 1012.04 1012.19
1021.58 1021.19 1020.54 1020.12 1019.71 1018.93 1018.16 1017.69 1017.23 1017.15 1017.29 1017.35 1017.49 1017.33 1016.34 1015.11 1015.21 1015.29 1015.27 1015.31 1015.30 1015.30 1015.43 1015.62 1016.07 1016.78 1017.06 1017.71 1017.66 1017.68 1017.49 1016.37 1014.69 1013.47 1012.97 1012.60 1012.13 1011.43 1011.14 1011.29 1011.41 1011.73 1011.69 1012.37 1012.63
1021.65 1021.08 1020.67 1020.24 1019.28 1018.47 1017.69 1017.27 1017.24 1017.16 1017.39 1017.38 1017.43 1017.54 1016.21 1015.97 1015.74 1015.55 1015.33 1015.35 1015.45 1015.57 1015.89 1016.26 1016.87 1017.37 1017.90 1018.34 1018.76 1018.33 1017.86 1016.63 1015.62 1014.05 1013.25 1012.82 1012.42 1011.82 1011.59 1011.68 1011.87 1012.21 1012.34 1012.65 1012.62
1021.76 1021.16 1020.51 1020.01 1019.43 1018.71 1017.90 1017.42 1018.06 1018.01 1017.93 1017.76 1017.47 1016.97 1016.60 1016.18 1015.89 1015.54 1015.51 1015.59 1015.87 1016.17 1016.98 1017.13 1017.91 1018.15 1018.17 1018.23 1018.16 1018.09 1017.81 1017.01 1015.24 1014.28 1013.94 1013.46 1012.98 1012.55 1012.21 1011.98 1012.22 1012.47 1012.85 1012.93 1013.05
1021.89 1021.25 1020.60 1019.89 1019.40 1018.90 1018.83 1019.85 1020.95 1021.20 1019.52 1017.93 1017.41 1017.09 1016.58 1016.56 1016.42 1015.85 1015.62 1016.03 1016.54 1017.23 1017.41 1017.75 1017.93 1017.75 1017.69 1017.56 1017.76 1017.53 1017.39 1016.73 1015.20 1014.52 1014.30 1013.80 1013.52 1013.10 1012.78 1012.66 1012.40 1012.52 1013.05 1012.94 1013.17
1021.91 1021.36 1020.65 1019.95 1019.15 1019.44 1020.53 1021.33 1021.26 1021.19 1020.46 1018.05 1016.97 1016.76 1016.69 1016.73 1016.84 1016.47 1016.36 1016.58 1016.92 1017.47 1017.99 1018.23 1017.74 1017.53 1017.56 1017.44 1017.35 1017.15 1017.31 1016.97 1016.80 1015.20 1014.78 1014.33 1014.36 1014.16 1013.71 1013.22 1012.94 1012.78 1012.49 1012.65 1013.06
1022.06 1021.61 1020.87 1019.99 1019.75 1020.49 1020.91 1021.20 1021.08 1021.16 1020.36 1017.96 1016.83 1016.20 1016.25 1016.39 1016.70 1016.34 1016.38 1016.83 1017.00 1017.53 1017.89 1018.08 1017.72 1017.80 1017.46 1017.36 1017.59 1017.25 1017.07 1016.91 1016.51 1016.15 1016.29 1015.75 1016.29 1015.30 1014.85 1014.30 1013.91 1013.64 1013.47 1013.21 1013.09
1022.03 1021.74 1021.15 1020.47 1020.98 1021.05 1021.30 1021.07 1021.05 1021.18 1020.38 1018.22 1016.86 1016.26 1016.28 1016.70 1016.80 1016.49 1016.47 1016.50 1017.22 1017.85 1018.44 1018.10 1017.89 1017.80 1017.59 1017.36 1017.38 1017.12 1016.87 1016.96 1016.85 1017.04 1017.17 1016.90 1017.23 1016.60 1015.60 1015.38 1015.29 1014.82 1014.06 1013.37 1013.42
1022.12 1021.69 1021.49 1021.13 1021.37 1021.51 1021.33 1021.10 1021.06 1021.00 1019.62 1017.96 1017.02 1016.85 1016.82 1016.77 1016.92 1016.80 1016.88 1016.95 1017.33 1017.89 1018.33 1018.40 1017.96 1017.97 1017.77 1017.12 1017.10 1016.89 1016.92 1017.27 1017.59 1018.01 1018.52 1018.81 1018.34 1017.65 1017.09 1017.22 1016.54 1015.61 1014.73 1013.89 1013.70
1022.16 1021.69 1021.52 1021.76 1021.94 1021.45 1021.37 1021.31 1021.46 1020.82 1019.41 1018.80 1017.99 1017.64 1017.73 1017.60 1017.40 1017.55 1017.69 1018.05 1018.63 1018.66 1019.14 1018.73 1018.21 1017.87 1017.89 1017.57 1017.17 1017.40 1017.57 1018.86 1019.30 1019.81 1020.09 1019.02 1018.60 1018.06 1017.52 1017.29 1017.12 1016.70 1016.10 1015.33 1014.83
1022.14 1021.82 1021.80 1021.87 1021.98 1021.72 1021.62 1021.50 1021.45 1020.31 1019.64 1019.13 1018.57 1018.23 1018.28 1018.07 1017.95 1018.00 1018.32 1018.87 1019.12 1019.54 1020.22 1020.11 1018.81 1018.49 1018.43 1018.70 1019.01 1019.09 1019.69 1020.59 1021.29 1021.63 1020.99 1019.48 1019.26 1018.42 1017.88 1017.56 1017.45 1017.00 1016.69 1016.18 1015.63
1021.85 1022.07 1022.15 1022.14 1021.82 1021.96 1022.06 1022.16 1021.13 1020.46 1019.93 1019.41 1018.75 1018.76 1018.73 1018.58 1018.72 1018.56 1018.75 1019.06 1019.19 1019.45 1020.12 1020.25 1019.65 1018.80 1018.71 1018.73 1019.05 1019.27 1020.07 1020.74 1021.32 1021.92 1021.93 1020.98 1019.71 1018.51 1018.49 1018.45 1018.01 1017.66 1017.22 1016.90 1016.49
1022.56 1022.42 1022.44 1022.14 1021.97 1022.07 1022.51 1022.15 1021.09 1020.30 1019.91 1019.70 1019.66 1019.48 1019.57 1019.42 1019.37 1019.17 1019.03 1019.10 1019.15 1019.35 1019.82 1020.51 1020.44 1019.41 1018.98 1018.98 1019.16 1019.43 1020.09 1020.85 1021.55 1022.62 1022.57 1021.85 1020.96 1020.28 1020.12 1020.04 1019.52 1018.97 1018.39 1017.80 1017.21
1022.63 1022.77 1022.46 1022.21 1022.17 1022.32 1022.91 1022.16 1021.08 1020.17 1019.86 1019.92 1019.91 1019.86 1019.89 1020.04 1019.96 1019.68 1019.50 1019.28 1019.30 1019.56 1019.67 1020.49 1021.19 1020.17 1019.60 1019.80 1019.97 1020.08 1020.53 1021.45 1022.43 1023.14 1023.52 1023.29 1021.99 1021.70 1021.77 1021.55 1021.16 1020.65 1020.06 1019.30 1018.62
1022.90 1022.97 1022.37 1022.28 1022.95 1023.10 1022.78 1021.69 1020.93 1020.34 1020.06 1019.88 1019.95 1020.12 1020.01 1020.11 1020.25 1020.02 1019.85 1019.60 1019.51 1019.69 1020.10 1020.73 1021.33 1021.35 1020.69 1020.29 1020.28 1020.40 1020.98 1021.65 1022.75 1023.70 1023.95 1023.98 1022.79 1022.48 1022.44 1022.34 1021.85 1021.54 1020.82 1020.16 1019.63
1023.41 1023.13 1022.54 1022.51 1023.26 1023.26 1022.67 1021.73 1020.99 1020.54 1020.26 1020.22 1020.09 1020.16 1020.27 1020.37 1020.57 1020.25 1019.99 1019.89 1019.86 1020.01 1020.17 1020.80 1021.65 1021.91 1021.19 1021.11 1020.85 1020.93 1021.22 1021.63 1022.43 1023.24 1023.88 1024.18 1022.88 1022.80 1022.46 1022.47 1022.89 1022.85 1022.34 1021.64 1020.95
1023.66 1023.47 1023.08 1023.33 1023.65 1023.07 1022.61 1021.78 1021.14 1020.68 1020.65 1020.39 1020.46 1020.35 1020.51 1020.63 1020.64 1020.71 1020.51 1020.31 1020.36 1020.28 1020.27 1020.86 1021.94 1022.43 1022.45 1021.62 1021.66 1021.72 1021.87 1022.07 1022.86 1023.83 1023.59 1023.26 1022.79 1023.41 1023.67 1023.47 1023.52 1023.73 1023.43 1023.06 1022.52
1023.58 1023.58 1023.33 1023.63 1023.43 1023.10 1022.82 1022.04 1021.22 1020.80 1020.73 1020.64 1020.80 1021.01 1020.99 1021.20 1021.26 1021.22 1021.06 1021.02 1020.81 1020.57 1020.69 1021.32 1022.03 1022.29 1022.07 1021.74 1021.75 1021.43 1021.28 1021.72 1022.26 1022.44 1023.42 1023.46 1024.22 1025.19 1025.36 1025.25 1024.95 1024.67 1024.27 1023.58 1022.90
1023.31 1023.45 1023.84 1023.59 1023.24 1023.06 1022.85 1022.11 1021.41 1020.91 1020.98 1020.95 1021.00 1021.29 1021.44 1021.60 1021.66 1021.93 1022.05 1022.20 1022.00 1021.77 1021.94 1022.37 1022.59 1022.83 1022.51 1021.74 1021.96 1021.90 1021.60 1021.89 1022.74 1023.44 1023.54 1023.74 1024.70 1025.83 1025.91 1025.82 1025.63 1025.50 1025.34 1024.89 1024.47
1022.99 1022.83 1022.84 1023.36 1023.27 1023.00 1022.42 1021.69 1021.17 1021.07 1021.23 1021.08 1021.24 1021.59 1021.96 1021.85 1021.83 1021.87 1022.00 1022.14 1022.27 1022.67 1023.05 1023.30 1023.23 1023.40 1022.57 1022.21 1022.20 1022.11 1022.10 1022.50 1023.63 1024.50 1024.97 1025.46 1026.53 1026.85 1026.67 1026.33 1026.22 1026.37 1026.51 1026.28 1025.74
Thickness
5652 5652 5651 5651 5650 5650 5649 5648 5646 5645 5642 5641 5639 5637 5636 5636 5638 5637 5630 5632 5630 5628 5625 5620 5617 5610 5604 5594 5587 5573 5552 5541 5545 5543 5547 5554 5553 5564 5574 5583 5597 5622 5635 5658 5667
5651 5651 5651 5651 5650 5649 5648 5647 5646 5645 5643 5642 5640 5638 5637 5635 5633 5631 5637 5633 5628 5625 5618 5609 5602 5598 5589 5583 5575 5559 5539 5543 5546 5545 5543 5546 5546 5551 5561 5576 5588 5612 5629 5641 5654
5652 5651 5651 5650 5649 5648 5648 5647 5646 5646 5645 5643 5641 5639 5637 5635 5630 5631 5636 5630 5626 5621 5614 5607 5599 5591 5582 5574 5568 5557 5543 5547 5546 5543 5542 5541 5542 5547 5555 5569 5585 5602 5619 5631 5647
5651 5652 5652 5651 5650 5649 5649 5648 5647 5646 5644 5642 5640 5639 5636 5630 5614 5634 5634 5629 5625 5619 5611 5601 5591 5580 5570 5563 5560 5548 5550 5547 5548 5543 5538 5538 5544 5545 5553 5570 5586 5598 5616 5626 5640
5655 5656 5654 5653 5652 5650 5650 5649 5648 5647 5644 5641 5639 5637 5635 5627 5625 5638 5633 5628 5623 5616 5606 5596 5584 5575 5564 5556 5551 5540 5546 5547 5546 5541 5538 5538 5538 5539 5551 5572 5580 5597 5610 5624 5634
5651 5649 5648 5649 5651 5652 5653 5653 5651 5649 5645 5642 5639 5636 5631 5622 5640 5636 5631 5626 5619 5611 5602 5593 5584 5575 5563 5554 5547 5550 5542 5545 5546 5544 5539 5537 5539 5539 5560 5571 5578 5591 5601 5615 5626
5648 5647 5648 5651 5653 5653 5654 5654 5654 5652 5649 5644 5639 5635 5629 5628 5639 5635 5630 5624 5618 5611 5600 5593 5584 5574 5564 5554 5552 5544 5536 5542 5548 5543 5540 5539 5535 5540 5558 5563 5571 5587 5587 5602 5614
5647 5646 5650 5652 5652 5653 5654 5656 5656 5653 5650 5645 5640 5635 5627 5644 5640 5635 5629 5623 5618 5611 5601 5595 5583 5573 5563 5555 5549 5540 5533 5525 5542 5539 5544 5542 5531 5551 5558 5558 5569 5583 5586 5592 5603
5646 5647 5649 5649 5648 5653 5656 5656 5656 5653 5648 5644 5639 5635 5629 5643 5635 5632 5627 5618 5614 5609 5601 5593 5581 5566 5559 5542 5533 5525 5515 5519 5530 5539 5537 5541 5536 5551 5558 5558 5565 5571 5583 5587 5596
5644 5646 5646 5646 5651 5655 5658 5657 5653 5650 5645 5641 5637 5630 5637 5630 5630 5628 5625 5619 5611 5604 5594 5585 5566 5558 5541 5530 5522 5520 5512 5518 5517 5533 5532 5535 5536 5546 5556 5556 5561 5566 5573 5580 5589
5641 5643 5645 5646 5646 5648 5652 5650 5641 5640 5636 5638 5634 5631 5629 5630 5630 5627 5622 5616 5607 5595 5579 5574 5558 5551 5549 5536 5533 5524 5512 5512 5526 5534 5526 5529 5532 5540 5550 5560 5560 5562 5565 5573 5580
5637 5639 5641 5643 5643 5643 5640 5626 5614 5610 5616 5629 5628 5626 5627 5624 5617 5622 5620 5609 5596 5582 5576 5566 5563 5563 5554 5549 5541 5534 5532 5525 5531 5535 5530 5529 5535 5541 5553 5560 5563 5566 5566 5572 5576
5634 5634 5637 5639 5641 5636 5622 5613 5610 5607 5605 5624 5629 5626 5622 5619 5610 5610 5610 5601 5591 5579 5568 5565 5569 5560 5556 5552 5543 5539 5536 5526 5520 5529 5534 5529 5533 5533 5546 5556 5560 5566 5571 5577 5576
5630 5630 5631 5635 5631 5622 5616 5611 5609 5604 5600 5625 5626 5628 5624 5618 5610 5612 5606 5598 5590 5579 5568 5563 5565 5558 5554 5555 5544 5532 5538 5530 5530 5529 5525 5521 5517 5536 5534 5546 5553 5557 5563 5572 5579
5627 5626 5627 5626 5618 5614 5611 5609 5605 5599 5567 5620 5620 5625 5619 5611 5607 5608 5604 5599 5587 5578 5568 5568 5562 5556 5555 5555 5547 5544 5538 5538 5538 5531 5528 5521 5515 5528 5535 5540 5542 5547 5557 5567 5574
5623 5624 5621 5619 5614 5609 5608 5606 5603 5585 5565 5608 5617 5609 5608 5606 5603 5600 5593 5591 5586 5578 5568 5559 5558 5558 5555 5553 5553 5547 5545 5539 5522 5518 5506 5509 5507 5523 5526 5529 5534 5544 5555 5567 5575
5619 5620 5618 5612 5608 5608 5606 5601 5579 5564 5604 5600 5598 5600 5595 5595 5595 5588 5582 5570 5562 5556 5551 5553 5558 5555 5553 5551 5552 5542 5530 5508 5510 5499 5508 5509 5511 5527 5530 5532 5536 5538 5541 5552 5563
5617 5616 5613 5609 5605 5603 5600 5596 5589 5601 5598 5595 5595 5592 5590 5588 5590 5580 5577 5562 5559 5549 5530 5531 5528 5546 5545 5542 5534 5530 5521 5494 5519 5496 5494 5507 5520 5525 5531 5533 5533 5539 5543 5546 5552
5615 5612 5607 5604 5603 5598 5590 5567 5585 5591 5593 5589 5592 5587 5582 5584 5578 5573 5568 5560 5557 5551 5544 5533 5538 5541 5544 5540 5537 5533 5515 5519 5505 5500 5491 5498 5521 5536 5525 5523 5530 5530 5543 5542 5543
5606 5604 5601 5601 5598 5593 5581 5584 5590 5592 5590 5586 5583 5580 5573 5567 5565 5560 5562 5560 5557 5551 5542 5536 5527 5538 5539 5539 5536 5533 5529 5516 5496 5505 5506 5500 5503 5502 5511 5513 5520 5525 5529 5531 5535
5600 5600 5597 5596 5593 5582 5576 5572 5586 5592 5589 5583 5577 5573 5569 5561 5558 5556 5557 5558 5553 5546 5542 5533 5521 5534 5532 5530 5527 5519 5518 5504 5494 5491 5494 5483 5510 5511 5503 5501 5503 5507 5512 5513 5522
5593 5596 5594 5590 5583 5555 5573 5579 5587 5587 5583 5580 5574 5568 5566 5561 5555 5554 5551 5551 5549 5545 5538 5529 5512 5512 5529 5526 5521 5523 5522 5504 5496 5499 5480 5477 5489 5500 5495 5497 5501 5499 5505 5509 5511
5586 5581 5586 5584 5578 5568 5568 5579 5580 5581 5578 5573 5571 5567 5562 5559 5552 5550 5549 5548 5545 5543 5538 5531 5511 5500 5522 5525 5522 5520 5520 5512 5497 5489 5489 5482 5499 5492 5495 5495 5491 5487 5492 5497 5499
5574 5580 5574 5566 5556 5571 5574 5576 5573 5573 5570 5568 5565 5563 5558 5554 5552 5545 5545 5544 5536 5541 5539 5529 5506 5508 5492 5518 5514 5508 5506 5509 5506 5477 5495 5490 5508 5479 5479 5481 5481 5476 5478 5479 5481
5566 5571 5567 5568 5565 5562 5563 5566 5570 5569 5566 5562 5557 5554 5553 5548 5544 5540 5540 5532 5533 5536 5531 5521 5512 5494 5505 5504 5507 5511 5515 5504 5492 5503 5501 5505 5496 5466 5463 5464 5466 5464 5464 5466 5470
5561 5560 5548 5551 5553 5553 5554 5560 5562 5563 5561 5557 5553 5547 5544 5541 5535 5533 5528 5519 5515 5522 5520 5501 5509 5504 5497 5507 5503 5505 5506 5499 5495 5494 5489 5496 5483 5455 5454 5452 5457 5452 5448 5448 5447
5550 5551 5556 5551 5541 5544 5547 5556 5558 5556 5552 5550 5544 5536 5531 5527 5529 5523 5517 5515 5516 5514 5503 5500 5495 5498 5501 5503 5501 5509 5513 5504 5475 5472 5468 5477 5453 5439 5439 5442 5438 5433 5427 5426 5427